Location: downtown San Diego
(32.7310°N, 117.1990°W)
Time: 15:49:45
(UTC-07:00)

Hubble Space Telescope - Pass Details

Date: 14 June 2018
Orbit: 537 x 541 km, 28.5° (Epoch: 20 June)

Event Time Altitude Azimuth Distance (km) Brightness Sun altitude
Rises 21:40:33 0° 259° (W) 2,671 4.8 -18.1°
Reaches altitude 10° 21:42:52 10° 253° (WSW) 1,780 3.8 -18.5°
Maximum altitude 21:46:49 46° 180° (S) 717 1.0 -19.1°
Enters shadow 21:47:01 46° 171° (S) 722 1.0 -19.1°
